Theta_e
331 331 331 331 331 331 332 332 332 331 332 332 332 331 330 330 329 329 329 329 329 329 327 327 327 327 327 327 328 328 328 329 330 330 331 331 331 331 331 332 331 331 331 331 330 330 330 330 330 330 330 330 330 330 330 329 329 329 329 328 328 329 329 329 329 329 329 328 328 328 327 324 320 316 315 315 315 313 312 313 315 320 323 323 324
331 331 331 332 332 331 332 332 332 332 332 331 331 330 330 330 329 328 328 329 329 328 327 327 327 327 327 326 326 326 326 327 328 329 329 329 330 330 331 331 330 330 330 330 330 331 331 330 330 330 330 330 330 330 330 330 329 329 329 327 328 330 330 330 329 329 329 328 329 329 328 327 324 320 317 315 316 315 314 312 312 316 321 323 323
332 332 332 332 332 332 332 333 332 332 332 332 331 331 330 329 328 328 327 328 328 328 328 328 328 328 327 327 327 327 327 328 328 328 328 329 329 330 330 330 330 330 330 331 331 331 331 331 331 330 330 330 330 330 330 330 330 329 329 328 327 329 329 330 329 329 329 328 328 329 329 328 327 325 321 317 316 316 315 314 311 311 317 322 322
333 332 332 332 333 332 332 333 332 332 333 332 331 329 329 328 327 327 328 328 329 329 329 329 329 328 328 328 328 328 328 328 328 328 329 329 329 330 330 330 331 331 330 330 330 330 330 330 330 330 330 329 329 330 330 330 329 329 329 328 328 328 328 328 329 329 329 329 328 328 329 329 328 327 325 321 317 316 316 316 314 310 312 318 321
332 332 331 332 332 332 332 332 332 332 332 332 330 328 327 327 327 328 328 329 329 329 329 329 329 329 329 329 329 329 329 328 328 328 329 329 329 330 330 330 330 330 329 329 329 329 329 329 329 329 328 328 328 328 329 330 330 329 328 328 328 328 328 328 328 328 329 329 329 328 328 328 328 327 327 325 321 318 316 316 315 313 310 312 317
332 331 331 332 332 331 331 330 331 332 332 331 330 328 328 328 329 329 329 329 329 329 329 329 329 328 329 329 329 329 328 328 328 328 329 329 329 329 328 328 328 328 328 328 328 328 328 328 328 328 327 327 327 327 328 328 329 329 328 328 328 328 328 328 328 327 328 329 329 329 328 328 328 328 327 327 326 323 319 317 316 315 314 310 312
331 331 331 331 331 330 330 330 331 331 331 331 330 329 329 329 330 329 329 329 329 329 329 329 328 328 328 328 328 328 328 328 328 328 328 328 328 328 327 327 326 327 326 326 327 327 327 327 327 327 327 327 327 327 326 326 327 327 327 327 327 327 327 327 327 327 327 328 328 329 329 328 328 328 327 327 327 327 324 321 318 316 316 314 311
331 331 331 330 330 330 330 330 331 331 331 331 330 330 330 330 330 330 329 329 329 329 329 328 328 327 327 327 327 327 328 327 328 328 327 327 327 326 326 325 325 324 324 324 324 324 324 325 325 326 326 326 326 326 326 325 326 326 326 326 326 326 326 326 326 325 326 326 327 328 329 329 328 328 327 327 327 328 327 325 321 317 316 316 315
331 330 330 330 330 331 331 331 331 332 331 330 330 330 330 330 329 329 329 329 328 328 327 327 327 327 327 327 327 327 327 327 327 326 326 325 325 324 324 323 321 320 319 319 319 319 320 321 321 322 323 324 324 324 324 325 325 325 325 325 325 325 325 325 325 324 325 325 326 327 328 329 329 328 328 328 328 328 328 327 324 321 318 317 317
331 331 331 331 330 331 332 332 332 331 331 330 330 330 330 330 329 329 329 328 327 326 325 325 325 326 326 326 326 327 326 326 326 325 325 324 323 323 321 318 316 313 312 311 311 312 313 314 316 317 318 319 320 321 322 323 323 324 324 324 324 324 324 324 324 324 324 324 325 325 325 326 328 328 328 328 328 328 328 328 325 324 322 319 318
332 331 331 330 329 330 331 331 331 331 330 330 329 329 330 329 329 329 327 324 323 322 321 322 324 325 325 325 326 326 325 325 325 325 324 323 322 320 316 312 308 305 304 303 303 303 304 305 307 309 310 312 314 316 318 319 320 321 322 322 323 323 323 322 322 322 322 323 323 323 323 324 325 326 327 328 328 328 328 328 327 326 325 322 319
331 330 329 329 329 330 331 331 331 331 330 330 330 329 329 329 329 327 323 319 318 317 316 320 323 324 325 325 325 325 325 324 324 324 323 321 317 313 308 304 301 300 299 299 299 299 299 299 300 300 301 303 305 308 311 313 315 317 318 319 319 319 320 321 321 321 321 322 322 322 323 323 323 323 324 327 328 329 328 328 328 327 326 324 321
330 328 328 329 330 331 331 331 331 331 330 330 329 328 328 328 326 323 318 315 314 313 314 317 320 322 323 323 324 324 324 324 325 324 320 315 309 304 300 299 299 299 299 298 298 298 298 298 298 298 298 298 299 300 301 303 305 307 309 311 313 314 315 317 317 318 319 320 320 321 321 322 322 322 323 325 327 328 328 328 329 328 326 325 323
328 327 329 330 330 330 330 330 330 330 329 328 328 327 327 324 320 316 313 312 312 311 312 314 318 320 320 321 323 323 324 323 321 318 313 307 302 299 298 298 298 298 298 298 298 298 297 297 297 297 297 297 297 298 298 298 298 299 300 301 303 305 307 309 311 313 314 315 317 318 319 320 321 321 322 323 325 326 327 328 328 327 326 325 325
327 327 329 330 330 330 330 330 329 329 328 327 327 325 322 318 314 312 311 311 311 310 310 310 313 318 321 322 322 323 324 318 312 310 306 301 298 298 298 298 298 298 297 297 297 297 297 297 297 297 297 297 297 297 297 297 297 297 297 297 298 298 300 301 303 305 306 308 310 312 314 317 319 320 321 322 323 324 325 326 326 326 325 324 325
328 328 330 331 331 330 330 329 328 328 327 326 324 320 316 313 312 311 310 310 309 307 307 306 307 313 318 320 319 321 321 312 306 305 302 299 298 298 298 297 297 297 297 297 297 296 296 296 296 296 296 296 296 296 296 296 296 296 297 297 297 297 297 297 298 298 299 301 302 304 306 309 313 315 318 320 322 322 323 324 325 326 325 325 325
330 331 331 331 330 329 328 328 327 327 325 321 318 314 312 311 310 309 308 308 306 304 304 303 302 305 308 312 314 314 309 304 306 304 299 298 298 297 297 297 297 297 297 296 296 296 296 295 295 295 295 295 295 295 295 296 296 296 296 296 296 297 297 297 297 297 297 297 298 299 300 301 304 307 310 314 318 321 322 322 324 325 325 325 326
332 331 330 329 328 327 327 327 326 323 319 315 313 311 310 309 308 307 305 304 303 302 303 302 301 302 301 303 306 305 300 300 305 304 298 297 297 297 297 296 296 296 296 296 296 295 295 295 295 295 295 295 295 295 295 296 296 296 296 296 296 296 296 297 297 297 297 297 297 297 297 297 298 299 301 305 310 315 319 321 322 323 324 325 325
330 328 327 326 325 325 326 325 321 317 314 312 310 309 308 307 306 304 302 302 302 301 302 302 301 302 301 301 300 300 300 299 301 302 301 299 296 296 297 296 296 296 295 295 295 295 295 295 295 294 295 295 295 295 295 295 296 296 296 296 297 297 297 297 297 297 297 297 297 297 297 297 297 297 297 298 301 305 310 315 318 319 321 323 324
327 326 325 324 325 325 324 320 315 313 311 310 308 307 306 304 303 302 301 301 301 301 302 302 302 301 301 301 300 300 300 299 299 300 301 300 297 296 296 296 296 295 295 295 295 295 294 294 294 294 295 295 295 295 295 295 295 296 296 296 297 297 297 297 297 297 297 298 298 298 298 298 298 297 297 297 297 298 301 306 311 314 317 320 322
326 325 324 324 324 323 318 314 312 311 309 308 306 305 303 301 301 301 301 301 301 301 302 301 301 301 300 300 300 299 299 300 299 298 298 299 297 295 295 296 295 295 294 294 294 294 294 294 294 294 294 295 295 295 295 295 295 296 296 296 297 297 297 297 298 298 298 298 298 298 298 298 298 298 298 298 297 297 297 298 302 307 313 317 320
326 324 323 323 321 317 314 312 310 308 307 305 304 302 301 300 300 300 300 301 301 301 301 301 301 300 300 300 300 300 300 299 299 298 298 298 297 295 295 295 295 295 294 294 294 294 294 294 294 294 294 294 295 295 295 295 295 295 296 296 297 297 297 297 298 298 298 298 298 298 298 298 298 298 298 298 298 298 298 297 297 299 305 312 318
325 324 322 320 317 313 311 309 307 306 304 302 301 300 300 299 300 300 300 301 301 300 301 300 300 300 300 300 300 300 300 299 299 298 298 297 296 296 295 295 295 295 294 294 294 294 294 294 294 294 294 294 294 294 295 295 295 295 295 296 296 296 297 297 297 297 297 298 298 298 298 298 298 298 298 298 298 298 298 298 297 297 298 304 313
325 323 319 316 313 311 309 307 305 303 301 300 299 299 299 299 299 300 300 300 300 300 300 300 300 300 300 300 300 299 299 299 298 298 297 297 296 296 295 295 295 295 294 295 294 294 294 294 294 294 294 294 294 294 294 295 295 295 295 295 295 296 296 296 296 297 297 297 297 297 298 298 298 298 298 298 298 298 298 298 298 298 297 298 305
324 321 316 313 311 308 306 304 302 300 299 299 299 299 299 299 299 300 300 300 300 300 300 300 300 300 300 299 299 299 299 298 298 297 297 296 296 296 295 295 295 294 294 295 294 294 294 294 294 294 294 294 294 294 294 294 295 295 295 295 295 295 295 296 296 296 296 297 297 297 297 298 298 298 298 298 298 298 298 298 298 298 298 297 298
322 317 313 310 308 306 303 302 300 299 299 299 299 299 299 299 299 300 300 299 299 300 300 300 299 299 299 299 298 298 298 297 297 296 296 296 296 295 295 295 295 295 294 294 294 294 294 294 294 294 294 294 294 294 294 294 295 295 295 295 295 295 295 296 296 296 296 297 297 297 297 298 298 298 298 298 299 298 298 298 298 298 299 298 297
318 314 310 308 305 303 301 300 299 299 299 298 299 299 298 299 299 299 300 299 299 299 299 299 299 299 298 298 298 298 297 296 296 296 296 295 295 295 295 295 296 296 295 294 295 294 294 294 294 293 293 294 294 294 294 294 294 295 295 295 295 295 296 296 296 297 297 297 297 298 298 298 298 298 299 299 299 299 299 298 298 298 299 299 299
314 310 308 305 303 301 300 299 298 298 298 298 298 298 298 298 299 299 299 299 299 299 299 299 298 298 298 297 297 297 296 296 295 295 295 295 295 295 295 295 295 295 295 295 295 294 293 293 294 294 294 294 294 294 294 294 294 294 295 295 295 295 296 296 296 297 297 298 298 298 298 298 299 299 299 299 299 299 299 298 298 298 298 299 299
310 307 305 303 301 300 299 298 298 298 298 298 298 298 298 298 298 299 299 298 298 298 298 298 298 297 297 297 296 296 295 295 295 295 295 295 295 295 295 294 294 293 294 296 296 294 293 293 293 294 294 293 294 294 294 294 294 294 295 295 295 295 296 296 296 297 297 298 298 298 299 299 299 299 299 299 299 299 298 298 298 297 297 298 298
307 305 303 301 300 299 299 298 298 298 297 297 297 297 297 298 298 298 298 298 298 298 298 297 297 296 296 296 296 296 295 294 294 294 294 295 294 294 294 293 293 293 292 294 296 294 292 293 293 293 293 293 293 294 294 294 294 294 294 295 295 295 296 296 296 297 297 298 298 298 299 298 298 298 298 298 298 298 298 298 297 297 297 297 298
305 303 301 300 299 299 298 298 298 298 297 297 297 297 297 297 297 298 298 297 297 297 297 297 296 295 295 295 295 295 294 294 294 294 294 294 294 293 293 293 292 292 292 293 294 294 292 292 293 293 293 293 293 293 294 294 294 294 294 294 294 295 295 296 296 297 297 298 298 298 298 298 298 297 297 297 297 297 297 297 297 297 296 296 297
303 301 300 299 299 298 298 298 298 297 297 297 297 296 297 297 297 297 297 296 296 297 296 296 295 295 294 295 295 294 294 294 294 294 294 293 293 293 293 292 292 292 292 292 293 293 292 292 292 293 293 293 293 293 293 293 293 294 294 294 294 294 295 295 296 297 298 298 299 298 298 297 297 297 296 296 296 295 296 296 296 296 296 296 296
302 300 299 299 299 299 298 298 298 297 296 296 296 296 296 297 297 297 296 296 296 296 295 295 295 294 294 294 294 294 293 293 294 294 293 293 293 292 292 292 292 291 292 291 292 293 293 292 292 292 292 293 293 293 293 293 293 293 294 294 294 294 294 295 296 297 298 299 298 298 297 297 296 296 295 295 295 295 295 296 296 296 296 296 296
300 299 299 299 298 299 299 298 298 297 296 296 296 296 296 296 296 296 296 295 295 295 295 295 294 294 294 294 294 293 293 293 293 293 293 293 292 292 292 292 291 291 291 292 291 292 292 292 292 292 292 292 293 293 293 293 293 293 293 294 294 294 294 295 296 297 298 298 298 297 296 296 295 295 295 295 295 295 295 295 296 296 296 296 296
299 299 299 298 298 299 299 298 297 296 296 296 296 296 295 296 296 296 296 295 295 295 295 294 294 294 294 294 293 293 293 293 293 293 293 292 292 292 292 292 292 292 291 292 291 291 292 292 292 292 292 292 292 292 293 293 293 293 293 293 294 294 294 294 295 297 298 298 297 296 296 295 295 295 294 294 294 294 294 294 295 295 296 296 296
298 298 298 298 298 298 298 297 296 296 296 296 296 296 295 295 295 295 295 295 295 294 294 294 294 293 294 293 293 293 293 293 293 293 293 292 292 292 292 292 292 292 292 292 291 291 291 291 292 292 292 292 292 292 292 293 293 293 293 293 293 293 293 294 295 296 297 297 296 296 295 295 295 295 294 294 294 294 294 294 295 295 295 295 295
298 298 298 298 298 297 297 297 296 296 296 296 296 295 295 295 295 295 295 294 294 294 294 294 293 293 293 293 293 293 293 293 293 293 292 292 292 292 292 292 292 292 292 292 292 291 291 291 291 291 291 291 292 292 292 293 293 293 294 294 293 293 293 294 295 296 296 296 296 296 295 295 295 295 295 295 294 294 295 295 295 295 295 295 295
297 297 298 298 297 297 296 296 296 296 295 295 295 295 295 295 295 294 294 294 294 294 293 293 294 293 293 293 293 293 293 293 293 293 292 292 292 292 292 292 292 292 292 292 292 292 291 291 291 291 291 291 292 292 292 293 293 294 294 294 293 293 294 295 295 296 296 296 296 296 296 295 295 295 295 295 294 295 295 296 296 296 296 296 296
297 297 297 297 297 296 296 296 296 295 295 295 295 295 295 295 294 294 294 294 294 293 293 293 294 293 293 293 293 293 293 293 293 292 292 292 292 292 292 292 292 292 292 292 292 291 291 291 291 291 291 291 292 293 293 293 294 294 294 293 292 293 294 295 295 296 296 296 296 296 296 295 295 295 295 295 295 295 295 295 296 296 296 296 296
297 297 296 296 296 296 296 296 295 295 295 295 295 295 295 295 294 294 294 294 293 293 293 293 293 293 293 293 293 293 293 292 292 292 292 292 292 292 292 292 292 292 292 292 292 291 291 291 291 291 291 292 293 293 293 294 294 294 293 292 293 293 294 294 295 296 296 296 296 296 296 295 295 295 295 295 295 295 295 295 295 295 295 295 296
297 297 296 296 295 295 296 295 295 295 295 295 295 296 296 295 294 294 294 294 293 293 293 293 293 293 293 293 293 292 292 292 292 292 292 292 292 292 292 292 292 292 292 292 291 291 291 291 291 291 291 292 293 293 293 294 294 293 293 292 293 293 294 294 295 296 296 296 296 296 296 295 295 295 295 295 295 295 295 295 295 294 294 294 294
297 296 296 295 295 295 295 295 295 295 295 295 295 296 295 295 295 295 294 294 293 293 293 293 293 293 293 293 292 292 292 292 292 292 291 291 291 291 291 291 292 292 292 292 291 291 291 291 290 290 291 292 292 293 294 294 293 293 292 292 293 293 294 294 295 296 296 296 295 295 295 295 295 295 295 295 295 295 294 294 294 294 293 294 294
296 295 295 295 295 294 294 294 294 294 295 295 295 295 295 295 295 295 295 294 293 293 293 293 293 293 293 293 292 292 292 292 292 292 291 291 291 291 291 291 291 291 291 291 291 291 291 291 291 290 291 291 291 292 293 294 293 293 292 292 292 293 293 294 295 296 296 295 295 295 295 295 295 294 294 294 294 294 294 294 294 293 293 293 294
296 295 294 295 295 294 294 294 294 294 294 295 295 295 295 295 295 295 295 294 293 293 293 293 293 293 293 292 292 293 293 293 292 292 292 292 292 292 291 291 291 291 291 291 291 291 291 291 291 290 290 291 291 292 293 293 293 293 292 292 292 293 293 294 295 295 295 295 295 295 294 294 294 294 294 294 294 294 294 294 293 293 294 294 294
296 295 295 295 294 294 294 294 294 294 294 295 295 295 294 294 295 296 295 294 293 293 292 292 293 293 292 292 292 293 293 293 293 293 293 292 292 292 292 292 292 292 291 291 291 291 291 291 291 291 290 290 291 291 292 293 293 293 292 292 292 292 293 294 294 295 295 295 295 294 294 294 294 293 294 294 294 294 293 293 293 294 294 295 296
295 295 295 294 294 294 294 294 294 294 294 294 295 295 294 295 296 296 295 294 293 292 292 292 292 292 292 292 292 293 293 293 293 293 293 293 293 293 293 293 293 293 292 292 292 291 291 291 291 291 291 290 291 291 292 292 293 293 293 292 292 292 292 293 294 294 295 295 295 294 294 294 293 293 293 294 293 293 293 293 293 293 294 296 296
295 294 294 294 294 294 294 294 294 294 294 294 295 295 294 295 296 296 295 295 294 292 292 292 292 292 292 292 293 293 293 293 294 294 294 294 294 294 294 294 293 293 293 293 292 292 292 292 291 291 291 290 290 291 291 292 293 293 293 292 292 292 292 293 294 294 295 295 294 294 293 293 293 293 293 293 293 293 293 293 293 293 294 295 296
296 294 294 294 294 294 294 294 294 294 294 294 294 295 294 295 295 295 295 294 294 293 292 292 292 292 292 292 293 293 294 294 294 294 294 294 294 294 294 294 294 294 294 293 293 293 292 292 292 291 291 291 291 290 291 292 293 293 293 292 292 292 292 293 294 294 295 295 294 294 293 293 293 293 293 293 292 293 293 293 293 293 293 295 296
296 294 294 294 294 294 294 294 294 293 293 294 294 294 294 295 295 295 294 294 293 293 292 292 292 292 292 292 293 293 294 294 294 294 294 294 295 295 295 295 294 294 294 294 294 294 294 293 293 292 292 292 292 291 291 292 292 293 293 293 293 292 292 293 294 294 294 295 294 294 293 294 293 293 292 292 292 292 292 292 292 292 293 294 296
295 294 294 294 293 293 293 294 293 293 293 294 294 294 294 294 294 294 294 293 293 293 292 292 292 292 292 292 293 293 294 294 294 294 294 294 295 295 295 294 294 294 294 294 294 294 294 294 294 294 293 293 293 292 292 291 292 292 293 293 293 292 292 293 293 294 294 295 294 294 293 294 293 292 292 292 292 292 292 292 292 292 293 294 296
295 294 294 293 293 293 293 293 293 293 293 294 294 294 294 294 294 293 293 293 293 292 292 292 292 292 292 293 293 293 294 294 294 294 294 294 295 295 295 294 294 294 294 294 294 294 294 294 294 294 294 294 294 293 293 292 292 292 292 293 293 293 293 292 293 293 294 294 294 294 294 294 294 293 292 292 292 292 292 291 292 292 293 293 296
Wind_Speed
5 4 3 2 2 2 2 1 1 1 2 3 4 5 5 5 5 5 5 6 6 7 8 8 8 8 8 8 9 9 9 9 9 10 10 10 11 12 12 13 13 13 13 13 13 12 13 14 13 13 14 14 13 12 11 11 12 12 12 12 13 13 13 13 13 13 14 13 13 14 14 14 12 11 10 11 11 12 12 12 13 15 14 11 10
5 4 3 2 2 2 2 1 0 1 2 3 4 5 5 6 6 6 6 6 7 8 8 8 8 8 8 8 9 9 9 9 9 10 10 11 10 11 12 13 14 14 14 13 13 12 12 12 13 13 13 13 13 12 12 12 12 12 13 14 14 14 14 13 13 13 14 13 13 14 14 14 13 12 12 11 12 12 13 13 13 15 16 14 12
3 3 2 2 2 1 1 0 1 2 3 4 5 5 6 7 7 8 7 7 8 8 8 9 9 9 9 9 9 9 8 8 9 9 10 10 10 10 11 13 13 13 13 13 12 11 11 11 12 12 12 12 13 12 12 12 12 13 13 14 15 15 13 12 12 12 13 13 14 15 15 14 14 14 13 13 12 12 13 13 13 14 16 17 15
2 1 2 1 1 1 1 1 3 4 4 6 7 7 7 8 9 9 9 8 9 9 10 10 10 10 9 9 8 8 8 8 8 9 9 9 9 9 10 11 12 12 11 11 11 10 10 10 10 11 11 12 12 13 13 12 12 13 13 13 14 14 12 11 11 12 12 13 14 15 15 15 15 14 14 14 13 13 13 14 14 14 15 18 18
1 1 1 1 0 1 2 3 4 4 5 7 8 9 8 9 9 9 9 9 10 10 10 10 10 9 9 8 7 7 7 8 8 8 8 9 10 10 10 10 10 11 11 11 11 10 10 10 10 11 11 12 12 12 12 11 13 13 13 13 13 12 12 12 12 12 12 13 14 15 15 15 16 15 14 14 14 14 13 13 14 14 14 16 19
1 1 2 1 0 1 3 3 4 5 6 8 9 9 9 9 9 9 9 10 10 10 10 10 9 9 7 6 6 6 7 7 7 8 8 9 10 10 10 10 10 11 11 12 12 11 11 11 11 11 11 12 12 12 11 11 11 12 13 14 13 11 10 11 12 12 13 13 14 15 15 15 16 16 15 15 16 16 14 14 15 15 14 14 17
1 1 1 1 1 1 3 4 5 6 7 8 8 8 8 8 8 9 9 10 10 10 9 9 8 8 6 5 5 6 6 6 6 7 8 9 9 9 9 10 11 12 12 11 11 11 11 11 11 11 11 12 13 13 13 13 12 11 13 15 14 11 10 10 11 12 13 13 14 16 16 16 15 15 15 16 17 17 17 15 15 16 16 14 15
2 2 1 2 1 2 3 5 6 7 7 8 8 8 7 8 8 9 9 9 9 10 9 8 7 6 5 4 4 5 5 5 5 6 7 7 8 9 9 10 12 12 12 12 11 11 11 11 11 11 11 12 13 14 14 15 15 14 14 16 15 13 12 12 12 12 12 12 13 14 15 15 15 15 16 18 19 18 18 17 15 15 16 15 15
3 3 3 3 3 3 4 5 6 7 8 8 8 8 8 8 9 10 10 9 9 9 9 7 5 4 3 3 3 3 3 3 4 5 5 7 8 9 11 12 12 12 12 12 12 11 11 11 11 11 11 12 12 13 14 14 15 15 15 17 16 15 14 13 13 12 11 9 10 13 14 14 16 17 18 20 21 21 20 19 17 16 16 16 15
3 4 4 4 4 4 4 5 6 8 8 8 8 9 9 10 10 11 11 9 8 8 8 6 3 2 1 1 0 0 1 2 4 4 6 8 10 11 12 13 13 13 13 12 12 12 12 11 11 11 11 12 12 12 13 13 15 16 16 17 17 15 15 15 14 13 12 11 11 13 14 15 17 17 18 19 21 23 23 21 19 18 17 16 15
3 4 4 4 4 5 5 6 7 7 8 8 9 10 10 11 12 13 11 9 7 6 6 4 3 3 3 2 2 2 2 3 3 5 8 10 11 12 13 14 14 14 14 14 13 13 12 12 12 12 12 12 12 13 13 13 14 16 16 17 17 17 16 16 15 14 14 14 13 13 13 15 16 16 17 16 17 21 23 24 22 20 19 18 16
3 4 5 5 5 5 5 6 6 7 8 10 11 12 12 13 13 12 11 8 5 3 2 2 4 4 4 3 2 2 2 3 4 7 9 10 12 13 13 14 14 14 15 15 15 15 14 14 13 12 12 12 12 13 14 14 15 16 17 18 18 19 19 18 17 17 17 17 16 15 14 15 16 15 14 14 15 18 23 25 24 22 21 20 18
4 4 5 5 5 5 5 6 7 9 10 12 12 13 13 13 12 10 8 6 4 2 2 3 4 4 5 5 4 2 0 2 5 7 9 10 12 13 14 14 14 14 15 16 16 16 16 16 16 15 14 13 13 12 13 14 15 15 16 18 18 19 20 19 20 19 19 19 18 17 17 16 17 17 14 14 16 20 23 26 27 26 24 22 20
4 4 4 4 5 7 8 8 9 11 12 13 13 13 12 11 9 7 5 5 4 3 3 3 3 5 5 5 4 3 2 4 6 7 8 11 13 14 14 14 14 15 15 16 17 18 19 19 19 18 17 16 15 14 14 14 14 15 16 17 18 18 19 19 20 21 21 21 21 19 19 19 20 20 18 17 18 20 22 23 26 26 24 22 22
4 4 5 6 8 9 10 11 11 12 12 12 12 10 9 7 6 5 5 5 4 4 4 3 2 4 4 3 3 1 1 5 7 7 10 13 14 15 15 15 16 16 17 18 19 20 20 21 20 20 20 19 18 16 16 15 15 16 16 16 17 17 17 18 19 20 21 22 23 21 21 22 23 23 22 21 20 20 21 19 19 21 23 23 22
4 5 7 9 11 11 12 12 12 12 11 10 9 7 5 4 4 4 5 5 4 5 6 5 4 3 4 3 2 3 2 4 6 8 11 12 14 15 15 16 16 17 18 19 20 21 21 21 21 22 21 21 21 20 18 17 17 17 17 17 17 17 17 18 18 18 20 22 23 23 23 23 25 25 24 24 23 22 22 19 17 18 23 25 23
6 8 10 12 13 13 13 12 11 10 8 6 5 4 3 3 3 5 6 5 6 6 6 7 8 6 4 4 3 4 4 1 3 8 10 11 13 15 15 16 17 18 18 19 20 20 21 21 22 22 23 23 23 22 22 21 20 20 19 19 19 19 19 19 19 18 19 20 21 23 24 24 25 26 25 26 26 24 23 22 21 20 21 24 24
9 12 13 14 14 14 13 11 9 6 4 3 3 3 3 3 4 6 5 6 7 7 6 8 9 10 10 9 7 7 7 6 5 6 9 11 13 14 15 17 17 18 19 19 19 20 21 21 22 23 24 24 25 24 25 24 24 23 22 22 21 21 21 21 21 21 20 20 20 21 23 25 25 26 26 27 28 27 24 23 22 23 23 24 24
12 14 15 15 15 12 10 7 4 3 3 3 3 4 4 4 5 6 5 6 7 7 8 9 9 11 12 12 12 12 12 11 9 7 7 10 14 16 16 17 18 19 19 19 20 20 21 22 23 24 25 26 26 27 27 26 26 25 25 25 24 23 22 22 22 22 22 21 21 20 21 23 25 25 26 27 29 28 26 24 23 23 24 24 23
13 13 13 13 11 7 5 2 2 3 4 4 4 4 4 5 6 6 6 7 8 8 9 10 10 12 13 13 13 13 13 13 13 11 9 9 14 16 16 16 18 19 19 19 20 22 23 23 24 26 26 26 27 28 28 28 28 27 27 27 26 26 24 23 23 22 23 23 23 21 20 21 23 25 25 27 28 28 27 27 26 24 23 22 21
12 11 10 8 6 3 1 2 4 4 5 4 4 4 5 6 7 7 8 8 9 9 9 11 12 12 13 12 12 12 13 13 15 16 14 12 13 16 16 17 18 19 19 20 21 22 23 24 25 26 26 27 27 28 28 28 28 28 28 27 27 27 26 25 23 22 22 22 22 22 22 21 22 24 25 26 27 27 27 28 28 27 24 22 20
10 9 7 5 2 1 3 4 5 4 4 4 4 5 6 7 8 8 9 9 10 10 10 12 12 12 12 11 12 12 12 14 15 17 17 15 15 16 17 17 18 19 20 20 22 23 23 23 24 25 26 27 28 28 28 28 28 28 27 27 26 26 26 25 24 23 22 21 21 21 21 21 21 22 24 26 27 27 26 26 28 28 26 23 21
9 8 5 2 1 3 4 5 5 4 4 4 6 6 7 8 9 9 9 10 11 11 11 11 11 11 11 11 12 13 13 14 16 16 16 16 16 17 17 17 17 18 19 19 21 22 23 24 24 25 26 27 29 29 29 29 29 29 28 27 26 26 26 26 25 24 24 22 21 21 20 21 21 21 22 25 27 27 26 26 27 27 26 24 23
8 7 3 2 3 5 6 6 5 5 5 5 6 7 8 9 9 9 10 11 11 10 10 11 11 10 11 11 12 13 13 14 15 15 15 15 16 18 18 17 18 18 17 18 20 21 23 24 25 26 27 27 28 29 30 30 30 30 28 27 26 26 26 27 27 26 25 24 23 23 22 21 22 21 21 22 25 27 27 26 26 26 26 24 25
8 5 3 4 5 6 6 5 5 5 6 6 7 9 9 9 9 9 10 11 11 10 11 11 11 11 11 12 13 13 13 14 14 14 15 16 18 19 19 18 19 18 17 18 20 22 23 24 26 27 28 29 29 30 31 31 31 30 30 29 28 28 28 28 28 28 27 26 25 24 24 23 23 23 22 21 22 24 27 27 26 26 26 24 24
7 4 4 5 6 7 6 6 5 6 6 7 8 9 9 8 9 9 10 11 11 10 11 11 11 11 12 13 12 12 13 14 14 15 17 18 19 21 21 20 20 20 19 20 22 25 26 26 28 30 31 31 31 32 32 32 32 32 32 33 33 32 31 30 30 29 29 28 26 25 25 24 23 23 24 23 22 22 24 26 27 26 26 24 23
6 4 5 7 7 7 6 6 6 6 8 8 9 9 9 8 9 9 10 12 11 10 11 10 11 12 12 12 12 12 14 15 16 17 19 20 21 21 21 20 20 20 22 23 23 25 27 27 28 31 32 32 31 32 32 32 33 33 34 35 35 35 34 34 33 32 30 29 28 27 25 25 25 24 24 24 24 23 22 23 26 27 26 25 23
4 6 7 8 7 7 6 6 6 7 8 9 9 9 9 8 9 10 11 11 10 10 11 10 11 12 12 12 12 13 15 16 17 19 20 20 20 19 19 20 20 20 22 22 22 25 27 28 29 29 30 31 31 31 31 32 32 34 34 35 35 36 37 37 36 34 33 31 30 29 28 27 27 26 25 24 25 24 23 21 23 25 26 26 25
6 8 9 9 8 6 6 6 7 8 9 9 9 9 9 9 9 10 10 10 9 9 10 10 11 11 11 11 12 14 17 18 19 20 20 20 19 19 19 21 21 22 22 20 20 25 28 29 30 30 30 30 31 31 31 31 32 33 34 35 36 38 39 38 38 38 37 35 33 32 31 30 29 28 27 25 24 24 24 23 21 22 24 25 26
8 10 10 9 8 7 6 6 8 9 9 9 9 9 9 9 9 9 10 10 8 8 9 9 10 11 11 12 14 16 18 18 19 19 19 19 19 19 20 22 22 23 23 19 18 23 29 29 29 31 31 31 30 30 31 31 32 33 35 37 38 39 40 41 42 42 41 39 37 36 34 32 30 29 28 26 25 23 24 23 22 21 21 23 25
9 10 9 8 7 7 6 6 7 8 9 9 9 9 8 8 8 8 9 8 7 8 9 9 10 11 12 13 15 17 18 18 18 18 18 18 19 20 21 22 23 23 25 23 20 23 29 30 30 30 31 30 30 32 32 32 33 35 36 39 40 42 43 44 45 45 43 41 39 37 34 32 30 29 28 27 25 23 23 23 23 22 21 21 23
10 10 9 8 7 6 6 6 7 8 9 9 9 9 8 7 7 7 8 7 6 8 9 9 11 12 12 14 15 17 18 17 17 17 18 19 20 21 22 23 24 24 25 26 25 27 29 30 30 30 30 31 31 33 34 34 35 36 37 39 42 44 46 47 48 47 45 43 40 36 33 31 30 29 28 27 25 24 23 22 23 23 22 21 22
11 10 9 9 7 6 6 7 7 8 8 8 8 8 7 6 6 6 7 7 6 7 8 9 11 12 13 14 15 17 17 16 17 17 18 19 20 21 22 23 24 24 25 26 27 29 30 30 30 30 31 32 33 34 36 37 38 39 40 41 43 46 49 49 49 48 46 43 39 36 33 32 32 31 29 28 27 26 24 23 23 24 24 24 22
11 10 9 9 7 7 7 7 8 8 8 8 8 8 6 5 5 6 6 6 6 7 8 9 12 12 12 13 15 16 16 16 16 17 18 19 20 21 22 23 23 24 25 26 26 29 31 31 30 31 32 33 34 35 37 40 41 42 43 44 47 49 50 51 51 49 45 42 39 37 36 35 36 34 32 30 29 27 26 25 25 25 25 26 25
12 11 9 8 8 8 7 7 7 8 8 8 8 7 6 5 5 6 6 6 6 7 8 10 12 12 12 13 14 15 15 15 16 17 18 19 20 21 22 22 23 24 25 26 26 28 30 32 31 32 33 34 35 37 39 41 42 44 46 47 50 51 52 54 51 43 39 40 40 38 36 36 36 34 32 31 29 28 27 26 27 27 26 27 28
12 12 11 9 9 8 7 7 7 8 7 7 8 7 7 6 6 6 6 6 7 7 8 10 11 11 12 13 14 14 14 14 16 17 18 19 20 21 21 22 23 24 24 25 26 27 29 31 32 32 34 35 36 38 40 41 42 44 45 48 52 52 53 54 44 33 35 40 39 36 35 35 35 33 31 30 29 28 26 25 25 27 28 28 28
12 12 12 11 10 9 8 7 7 8 7 7 7 7 7 7 6 6 6 6 7 7 8 9 10 11 11 12 13 13 13 14 16 17 18 19 20 20 21 22 23 23 24 25 26 27 28 30 32 33 35 36 37 38 39 41 44 45 43 45 50 53 55 52 38 30 34 37 34 33 33 33 33 31 30 29 29 29 25 22 22 24 26 27 27
12 12 12 12 11 10 9 9 8 8 7 7 8 7 7 7 7 6 6 6 6 7 8 9 9 10 11 12 12 12 13 15 16 17 18 18 19 20 21 22 22 23 24 25 26 27 28 30 33 35 36 37 38 39 39 42 44 44 43 47 51 53 53 47 36 32 32 32 32 32 30 30 31 29 28 29 29 27 26 24 23 21 21 23 24
12 12 12 13 12 11 10 10 9 8 7 8 8 8 7 7 7 6 6 5 6 7 8 9 9 10 10 12 12 12 14 15 16 17 17 18 18 20 20 21 22 23 24 26 27 28 30 31 33 35 36 37 36 37 39 40 38 39 43 50 55 54 49 41 36 34 32 31 33 32 29 30 30 27 27 28 26 26 28 27 24 22 20 19 19
13 12 13 13 13 12 11 10 10 9 8 9 9 8 8 8 7 6 6 5 6 7 8 8 9 9 10 11 12 13 14 15 16 16 17 17 18 19 20 21 22 23 25 26 28 29 30 32 33 34 35 35 33 35 39 39 39 41 45 50 52 51 47 42 38 35 32 31 32 31 29 29 29 27 26 25 24 25 27 26 23 21 20 20 20
14 13 14 14 13 13 12 11 10 9 9 9 9 8 8 8 7 6 5 5 6 8 9 8 8 9 10 11 12 13 14 15 15 16 16 17 18 19 20 20 22 23 25 26 28 29 30 31 32 33 34 34 33 36 38 39 42 44 48 50 49 47 45 41 37 34 31 30 31 31 31 31 30 28 26 25 24 24 24 23 21 20 22 24 25
14 14 15 14 13 13 12 12 11 10 10 10 9 9 8 8 7 6 5 5 6 8 8 8 8 8 10 11 12 13 14 14 14 15 16 16 17 18 19 20 22 23 24 26 27 28 30 31 32 32 33 33 34 35 36 38 41 44 48 51 50 47 46 42 38 34 29 28 31 32 31 32 32 31 29 28 26 24 22 21 21 24 27 28 27
15 15 15 15 14 13 12 12 11 10 11 10 10 9 9 8 7 6 5 5 6 7 7 7 7 8 9 10 11 12 13 13 14 14 15 15 16 17 17 19 20 22 23 25 26 27 29 30 31 31 31 32 34 34 34 37 40 43 47 50 49 48 48 44 40 36 32 30 32 32 32 33 34 32 30 29 27 26 24 24 26 30 31 29 27
15 16 16 15 15 15 14 12 11 11 11 11 10 10 9 9 8 6 6 5 6 7 7 6 7 7 8 9 10 11 12 12 13 13 14 14 14 15 16 17 18 20 22 23 25 26 28 29 30 30 29 31 33 33 33 36 39 42 46 48 47 48 48 42 36 35 35 33 31 31 32 35 35 33 31 30 28 27 27 28 31 32 30 27 25
16 17 17 16 16 15 15 14 12 11 11 11 11 10 10 10 9 8 6 5 6 7 6 6 6 6 7 7 8 10 11 12 12 13 13 13 14 14 15 16 17 19 20 21 23 24 26 28 29 29 28 29 31 31 32 34 37 41 44 47 47 48 48 42 35 35 35 33 31 31 34 37 36 32 32 32 30 28 28 29 31 31 27 24 22
16 17 17 17 16 16 15 14 13 12 11 11 11 11 11 11 10 8 7 5 5 6 6 5 5 5 6 6 7 8 10 10 11 12 12 12 13 14 15 16 17 18 19 20 21 23 24 26 27 28 28 28 29 30 30 32 35 37 41 46 48 49 47 40 33 32 32 30 30 33 37 42 39 31 30 32 31 30 29 29 30 29 26 23 22
16 17 17 17 17 16 16 15 14 13 12 12 11 11 12 12 10 9 8 6 5 5 5 4 4 4 4 5 6 7 9 9 9 10 11 12 13 14 15 16 17 19 19 20 22 22 24 25 26 27 27 27 27 28 29 30 32 34 38 43 46 47 45 37 30 29 29 27 29 34 40 44 39 31 31 33 32 31 29 27 29 29 27 24 24
17 18 17 17 17 16 16 15 14 14 13 12 12 12 12 12 11 10 9 7 6 5 4 3 3 3 3 4 5 6 7 8 8 9 10 11 12 13 14 15 16 18 19 20 21 22 23 24 24 25 26 26 26 26 27 29 30 33 38 42 46 47 43 36 32 31 28 25 29 35 41 43 39 33 33 33 32 32 30 27 27 28 27 24 23
18 18 18 17 17 17 16 15 15 14 14 13 13 13 13 12 11 10 9 8 7 6 5 4 3 2 2 2 3 4 6 6 6 8 9 10 11 12 13 14 15 17 18 19 20 20 22 22 23 23 24 26 26 26 27 28 30 34 39 42 46 49 44 37 33 33 32 30 33 38 41 42 41 38 35 32 30 29 30 28 27 26 26 23 21
18 19 18 18 18 17 16 15 14 14 14 13 14 13 13 12 12 11 10 9 8 6 5 4 3 2 1 1 1 3 4 5 5 6 8 9 10 11 12 14 15 17 18 19 20 21 21 22 22 23 24 25 27 27 29 30 31 34 37 40 45 48 46 40 35 34 36 36 36 40 42 43 45 44 39 34 30 27 27 29 28 26 25 23 21
18 19 19 19 18 18 17 16 15 14 14 13 13 13 13 13 12 11 11 10 9 8 6 5 4 3 2 1 0 1 3 3 4 6 7 8 9 10 12 13 15 17 18 19 21 22 23 24 24 24 25 26 28 29 31 32 33 34 36 38 42 45 47 45 40 37 39 39 39 44 44 43 46 47 43 41 39 36 32 30 28 26 24 25 26
Wind_Direction
172 174 164 148 148 150 148 139 121 36 355 337 328 320 316 318 323 327 331 338 343 346 346 344 344 342 338 334 331 330 328 327 325 324 324 323 320 318 316 316 317 321 325 327 332 333 327 327 331 333 338 343 347 345 338 331 329 325 321 320 323 325 320 312 310 316 323 327 332 334 331 326 319 310 297 289 285 279 272 267 260 249 244 245 246
168 169 159 149 156 158 163 163 98 10 356 343 327 321 322 329 334 337 341 343 344 345 343 342 342 339 337 333 329 328 326 326 326 324 323 321 319 317 314 315 318 322 326 328 332 335 332 332 336 340 342 346 349 348 342 337 334 328 321 320 323 323 316 311 310 311 314 316 320 319 318 322 322 317 308 297 288 284 280 274 267 254 243 241 243
166 168 170 161 159 174 197 228 355 356 355 346 336 333 333 337 340 345 346 345 344 341 340 341 340 339 336 333 331 328 327 327 327 327 326 327 328 327 325 325 327 329 331 332 334 335 336 341 347 351 351 349 351 353 351 346 339 333 326 322 323 324 318 312 312 310 308 306 306 305 303 310 319 318 313 306 296 287 282 279 274 261 247 241 241
166 178 188 166 158 199 296 336 354 359 357 350 347 345 343 343 346 349 349 348 345 340 340 340 336 335 333 332 331 329 332 335 335 339 342 343 345 346 341 339 339 338 340 342 343 344 344 345 346 349 353 352 354 357 359 357 349 338 329 325 322 322 320 314 310 305 300 298 299 300 298 300 308 312 310 307 303 294 284 279 277 270 255 245 241
173 214 220 191 146 348 352 349 352 352 351 351 350 348 347 349 350 350 350 349 343 340 340 337 332 332 333 332 331 336 342 345 349 354 358 1 1 359 354 350 350 349 353 355 355 356 357 355 351 349 349 349 350 352 356 1 359 347 332 325 323 323 324 319 312 304 296 294 295 297 298 296 297 301 303 304 303 299 290 282 276 272 265 254 244
213 240 237 227 345 351 348 345 348 347 348 351 349 347 346 346 348 348 350 349 343 339 338 335 335 339 341 340 341 350 354 354 359 3 7 11 7 1 358 355 355 356 358 359 358 357 358 357 353 350 346 344 344 342 341 343 350 349 336 326 323 322 325 322 317 313 305 296 289 290 291 290 291 292 293 297 299 299 295 287 278 270 267 263 251
261 260 255 258 318 336 337 340 345 345 349 349 344 342 340 340 343 346 350 349 342 338 337 338 341 345 351 356 360 2 0 0 4 8 12 9 2 357 356 355 356 356 356 355 354 353 352 349 344 341 338 335 332 331 328 325 324 326 322 320 321 315 312 310 311 317 318 310 297 289 285 280 282 287 287 288 289 291 292 289 282 272 265 263 257
268 275 288 293 306 327 339 342 342 342 343 341 336 335 334 334 337 340 344 345 339 334 333 338 340 345 355 0 5 2 360 7 11 14 11 1 358 359 357 356 355 353 351 350 349 347 343 340 335 330 328 323 318 316 315 313 311 309 307 310 313 310 306 300 299 308 317 325 319 301 289 279 277 280 282 280 279 281 283 284 282 274 266 261 259
282 290 306 310 317 335 341 339 334 335 336 334 331 330 327 327 331 333 335 338 335 327 325 329 330 331 340 346 357 2 5 20 26 22 9 358 359 0 357 355 353 349 346 345 343 343 340 336 331 325 321 316 312 309 307 306 305 304 302 304 307 308 306 301 298 299 300 313 320 305 296 287 280 279 279 276 275 276 275 277 278 273 267 262 258
293 292 298 308 322 331 331 327 325 329 332 330 327 325 323 324 325 326 329 333 330 320 316 316 301 278 270 276 309 72 60 50 42 26 4 358 359 356 355 353 351 349 345 344 343 343 340 334 330 324 321 317 315 311 307 305 303 303 303 305 309 310 309 306 302 299 292 289 292 298 305 297 283 278 279 276 273 272 272 273 275 269 264 262 258
288 293 300 309 317 316 311 311 316 326 330 329 328 327 326 324 322 323 327 333 331 318 308 286 228 219 219 198 168 137 86 61 34 13 356 353 354 354 355 355 355 352 348 350 352 351 347 341 336 331 328 324 319 315 311 308 305 305 305 306 310 311 311 311 308 302 295 291 286 291 306 304 293 284 279 278 272 269 268 267 267 262 258 257 258
274 289 293 292 293 293 297 305 317 330 333 330 331 330 327 324 321 322 331 343 349 333 294 221 207 208 204 203 176 148 90 49 15 358 350 351 358 2 3 4 3 359 356 357 358 358 357 354 352 349 344 337 328 321 316 312 309 307 306 306 308 309 310 309 309 307 301 298 297 293 294 296 298 295 284 275 267 259 258 257 257 257 254 253 254
251 268 268 269 280 297 309 317 328 336 333 331 330 328 325 321 320 326 342 3 21 40 104 163 198 212 205 211 205 185 152 18 354 344 350 2 11 13 14 14 14 10 6 4 3 4 4 4 4 3 1 357 349 340 330 324 318 313 310 308 308 308 308 307 307 308 304 302 303 302 297 293 293 295 289 276 264 258 256 254 254 251 248 250 250
254 266 271 291 311 320 324 327 333 334 331 328 327 325 322 321 325 338 6 39 57 63 84 130 189 224 218 217 228 242 290 330 344 351 9 22 23 22 23 23 23 20 15 10 9 9 10 11 10 9 9 8 5 359 352 344 336 329 323 317 312 309 307 305 304 304 305 303 303 303 301 296 293 293 292 284 272 267 266 265 261 252 244 247 250
279 291 308 321 324 325 327 330 332 329 326 325 324 324 322 327 342 360 27 49 61 69 75 94 154 205 213 218 235 234 335 338 354 22 31 32 29 25 26 27 26 24 19 15 14 14 14 14 13 12 12 13 12 9 3 356 349 342 336 329 323 318 312 308 304 301 301 301 301 301 299 296 294 294 295 293 285 276 274 273 268 251 238 241 247
302 313 321 323 323 324 324 326 325 324 323 324 326 327 333 348 5 22 34 43 44 56 68 73 93 143 189 195 170 115 87 346 5 43 41 34 30 25 26 27 26 24 20 19 17 16 16 16 14 14 14 14 14 13 10 4 358 351 345 340 334 330 326 320 315 309 304 301 299 299 297 295 293 294 295 294 290 285 280 274 266 250 239 240 243
324 327 324 321 320 318 316 317 318 322 326 330 338 346 5 18 26 35 34 34 32 34 53 66 74 87 110 126 118 106 101 48 36 56 50 39 32 27 26 28 27 25 23 23 21 19 18 18 17 17 15 15 15 14 13 10 6 1 355 351 346 341 337 333 329 324 317 310 304 301 299 296 294 293 293 292 290 289 288 280 271 262 254 249 245
335 329 322 317 313 310 309 312 317 326 340 357 22 33 43 40 38 44 33 27 35 33 48 66 70 73 76 83 86 85 85 86 92 83 63 48 39 33 30 30 29 27 26 25 25 23 21 21 20 18 16 15 15 15 15 13 10 7 2 359 355 350 345 341 338 334 330 324 316 310 304 301 299 296 293 291 288 287 290 287 279 272 268 264 257
334 325 318 313 308 305 306 313 329 2 43 55 60 57 56 51 46 51 40 37 48 43 50 62 63 62 64 65 64 64 66 69 82 99 88 56 41 36 33 30 29 28 27 27 27 25 25 24 22 19 17 15 15 14 14 14 11 8 5 2 359 356 352 348 344 339 335 332 327 321 313 307 305 302 298 294 291 289 287 287 285 282 278 274 270
332 325 320 315 309 310 313 340 40 62 66 64 64 60 58 55 53 58 54 55 62 56 54 57 54 53 54 52 51 53 55 57 61 69 82 70 45 38 35 30 30 30 29 29 28 26 25 24 23 20 17 15 14 13 11 11 10 8 5 2 359 358 356 352 349 344 339 335 331 328 322 314 310 308 304 299 297 294 288 284 284 285 285 282 277
335 332 328 323 318 333 24 77 76 73 70 67 64 60 60 61 64 70 69 69 69 64 58 55 52 52 52 49 48 48 49 48 48 49 55 61 48 38 34 30 30 30 31 32 30 29 26 24 23 19 16 15 13 12 10 9 8 7 4 1 359 357 355 352 350 346 343 338 334 331 327 321 315 310 308 304 302 299 294 287 283 281 282 284 277
338 338 334 330 336 99 106 96 88 83 80 77 70 65 68 74 79 84 81 75 71 64 59 57 56 57 56 53 48 45 44 42 42 41 42 46 43 39 37 36 32 28 28 29 30 29 26 23 21 17 14 14 13 11 9 7 6 5 3 0 358 355 353 350 348 345 343 338 334 330 328 325 319 313 308 306 304 302 299 293 286 281 278 279 275
337 336 330 316 148 129 111 100 99 97 89 80 77 78 83 88 90 89 83 75 69 63 62 63 62 60 57 51 47 44 43 42 41 39 38 40 40 39 39 40 37 31 27 27 28 27 23 21 19 17 14 12 11 8 7 6 3 1 0 359 357 354 351 348 346 343 340 336 332 327 324 321 318 314 309 306 304 302 302 298 292 286 279 274 271
331 326 306 202 150 124 112 109 108 100 91 87 90 91 90 91 89 85 78 72 69 66 64 63 59 56 53 50 48 46 45 46 44 41 41 41 41 40 39 40 40 34 27 27 27 24 21 19 16 16 16 12 10 7 5 4 1 358 357 356 354 352 349 346 343 341 337 333 330 326 321 316 311 310 306 303 302 301 301 299 295 291 284 274 267
322 307 245 175 143 126 120 120 113 103 101 99 98 93 89 89 86 80 76 73 70 65 61 58 56 54 54 52 51 49 49 51 48 44 43 41 39 38 36 38 43 39 31 29 28 24 20 16 14 15 15 12 9 7 4 2 359 356 354 352 352 351 348 346 342 339 335 331 329 325 320 314 308 305 302 300 298 297 297 297 296 293 288 280 267
308 274 201 159 140 134 130 126 118 112 109 103 97 92 88 89 85 81 77 72 67 62 59 57 56 56 55 53 51 51 53 52 49 45 42 39 37 35 32 31 35 36 33 30 25 23 20 16 14 12 12 10 8 6 3 360 356 354 352 350 351 350 349 347 343 339 335 332 329 324 319 315 309 303 300 298 296 294 293 294 295 293 291 286 273
285 225 176 151 143 142 136 129 122 117 109 102 97 94 91 90 85 78 73 69 64 61 60 57 57 56 54 53 50 51 53 51 47 44 42 40 37 35 32 29 28 28 29 28 23 19 17 16 15 12 9 7 7 5 1 359 355 352 351 351 350 350 350 348 345 342 339 336 332 327 323 318 313 309 303 299 297 296 293 291 292 292 290 288 280
226 186 164 153 149 144 136 129 122 115 109 105 100 97 94 88 81 73 70 68 63 60 60 57 57 57 55 53 51 51 52 48 45 44 41 40 38 35 34 34 31 25 24 24 20 17 15 14 14 13 9 5 4 3 360 358 355 351 351 352 351 351 350 348 346 345 344 341 337 333 329 324 319 315 310 304 300 298 296 292 289 289 288 285 282
180 171 163 157 149 141 135 130 123 115 111 109 103 97 92 84 78 73 70 68 62 61 62 60 60 59 56 54 53 52 51 47 44 43 40 38 38 36 36 36 35 29 22 14 13 15 15 14 11 8 8 6 3 1 359 357 355 352 352 352 352 352 350 348 347 347 346 344 340 337 333 329 324 319 314 308 302 298 296 293 288 287 286 283 280
169 167 163 155 147 142 139 131 123 117 114 111 104 95 87 81 77 74 71 67 61 63 66 65 64 62 57 55 54 52 50 46 44 42 40 39 38 37 37 36 35 32 24 13 5 10 12 14 11 6 5 4 0 360 0 358 356 354 353 353 353 352 349 350 350 349 347 345 342 338 334 331 326 321 315 310 304 298 294 293 289 285 284 282 278
166 164 159 154 151 146 138 130 123 121 117 109 101 94 88 81 77 74 73 70 63 65 69 67 66 63 57 55 54 52 50 46 44 43 41 40 40 38 37 34 32 30 26 18 7 8 10 10 9 7 3 0 359 360 360 358 357 356 356 354 353 352 351 351 350 348 347 345 341 337 333 330 325 321 316 311 306 300 293 290 288 285 280 278 276
163 163 159 156 154 143 136 132 127 122 115 106 100 95 91 83 79 80 79 75 68 69 72 70 69 65 58 55 54 53 51 46 44 43 42 42 41 39 36 32 30 26 24 19 9 9 12 8 6 6 2 0 1 360 358 358 357 357 358 355 353 353 353 351 349 348 346 344 341 337 333 329 327 325 321 316 311 304 297 289 285 283 279 274 271
164 164 161 156 153 145 143 138 129 120 111 107 104 99 95 89 90 92 87 83 78 76 76 74 71 67 60 57 56 54 51 48 46 44 44 43 41 39 36 32 28 23 21 18 9 7 10 8 5 5 3 2 2 0 357 357 357 358 358 356 354 354 353 351 349 347 345 344 342 339 336 334 333 331 329 325 319 312 304 294 285 282 279 275 269
166 163 159 156 155 154 152 141 129 122 115 113 110 105 104 102 104 103 97 93 86 81 80 76 72 67 61 58 56 54 51 47 47 46 45 43 41 39 36 32 28 22 18 15 9 4 5 6 5 5 4 3 1 0 358 357 357 357 356 355 355 354 352 350 346 345 346 346 343 341 339 336 333 331 329 328 325 319 311 301 290 281 277 275 272
167 160 159 161 160 159 154 144 133 126 123 121 117 116 118 119 116 111 107 102 93 86 81 76 72 67 62 59 56 54 51 47 46 46 44 43 40 37 35 31 27 22 17 13 9 4 1 3 5 4 4 3 2 1 359 357 356 356 356 355 355 353 351 348 345 341 343 345 344 341 338 333 329 327 325 325 325 323 317 309 298 287 278 273 271
169 162 162 164 164 161 155 149 140 131 130 127 125 128 130 130 127 120 115 106 97 91 83 77 73 68 63 60 57 55 52 50 48 46 44 42 39 36 32 30 26 21 16 12 10 6 1 2 4 5 5 4 3 2 360 356 355 356 356 354 353 352 349 348 344 335 337 342 341 337 333 328 326 324 322 321 321 321 317 310 303 296 288 281 275
171 166 165 165 165 164 158 155 147 138 137 133 132 138 140 140 138 130 122 112 103 96 87 80 75 69 65 61 58 56 54 53 50 46 44 41 38 34 30 28 24 19 15 13 10 8 5 3 3 5 6 4 3 3 1 356 355 357 355 350 350 350 348 347 344 335 335 337 335 332 329 326 324 323 322 320 321 323 321 315 309 302 295 291 286
173 168 168 168 166 166 162 159 155 150 147 143 142 147 149 149 148 139 129 120 110 102 92 83 75 69 65 61 57 55 55 55 51 47 44 40 36 33 29 25 22 18 15 12 10 8 8 6 4 4 6 5 3 2 0 358 356 354 350 348 349 350 348 347 343 338 335 332 330 331 328 326 325 324 322 323 325 327 327 324 318 310 301 294 289
175 171 171 173 171 168 165 162 161 159 156 153 152 157 161 160 156 149 140 130 118 106 94 85 75 69 66 60 57 55 54 52 50 47 44 40 36 32 27 23 19 17 15 12 9 8 9 8 6 4 4 5 2 358 358 358 355 352 350 349 349 351 350 345 340 338 336 331 331 331 329 329 329 326 323 324 326 325 325 325 320 314 309 300 292
175 175 176 177 175 170 168 168 167 163 161 161 162 167 172 169 164 159 150 135 118 104 96 87 77 72 67 62 58 55 53 50 47 45 42 38 35 30 26 21 17 15 14 10 9 8 8 8 7 3 2 2 359 356 357 357 354 352 353 351 349 348 348 345 341 341 338 333 333 334 335 334 331 329 327 324 322 322 322 323 318 313 310 305 300
176 177 179 180 178 174 172 172 171 167 164 167 170 174 178 175 170 166 158 137 113 101 95 88 81 75 69 65 61 57 54 51 47 44 39 35 32 27 23 20 17 14 12 9 8 7 7 8 7 3 1 360 358 357 357 356 354 352 352 353 350 347 345 343 341 341 339 336 335 337 340 339 333 330 329 326 324 322 321 320 316 310 306 303 300
178 179 179 180 179 179 178 176 174 170 169 172 175 176 178 178 174 169 159 136 113 102 95 89 83 77 70 65 62 58 56 54 51 47 41 35 31 25 20 16 14 13 10 9 8 6 6 7 6 3 360 357 358 359 356 354 353 352 353 354 352 347 346 343 341 343 343 339 336 336 338 339 335 329 327 327 326 324 321 315 310 308 308 306 301
181 181 181 180 180 181 182 181 177 175 175 176 178 178 176 174 172 166 155 134 116 108 100 90 84 76 68 63 60 59 58 57 55 51 45 39 33 28 22 16 12 9 7 7 6 5 5 5 5 4 359 355 358 359 355 353 353 353 355 356 352 349 348 344 339 342 346 344 337 332 333 337 336 328 325 326 326 324 321 315 312 313 314 311 304
185 184 183 184 184 183 182 183 182 181 181 180 178 178 175 171 169 162 150 135 119 112 105 95 85 75 65 58 57 57 57 56 57 54 49 43 36 31 26 21 16 11 7 5 4 4 4 3 4 4 359 355 358 359 356 354 353 354 356 356 354 353 352 346 338 337 342 345 340 332 332 336 335 328 325 327 327 323 322 321 320 319 316 312 305
189 188 187 187 188 187 184 184 185 185 186 184 180 177 174 172 170 163 155 141 122 114 110 101 90 78 66 56 53 55 55 55 54 53 50 45 39 34 28 24 21 17 12 7 4 3 2 2 2 3 1 357 357 359 358 355 355 355 355 356 357 357 354 349 340 335 339 344 342 336 332 334 335 329 325 328 327 324 323 322 321 322 321 315 307
190 191 191 190 190 189 186 185 188 190 190 188 184 179 175 174 172 168 163 152 133 121 115 110 97 83 71 59 54 56 55 54 52 50 47 44 39 34 28 25 22 20 15 11 9 6 3 2 1 1 2 360 357 358 358 358 357 356 355 357 359 360 356 349 339 335 341 346 344 338 333 334 337 331 325 328 327 324 323 321 321 324 325 320 312
192 193 193 194 192 189 187 188 190 192 193 192 188 183 178 177 176 175 173 167 154 136 125 121 107 89 72 59 57 57 56 53 49 46 42 40 38 33 28 25 22 21 18 13 11 8 5 4 2 0 1 2 1 359 359 360 358 356 357 1 2 1 358 350 338 337 344 349 349 343 336 336 340 335 328 331 330 327 327 325 322 322 321 320 316
192 193 195 195 194 191 190 191 193 195 196 195 192 187 182 181 182 182 181 180 173 160 148 142 125 101 77 57 56 58 57 52 45 40 36 33 34 32 28 26 23 22 21 17 13 11 7 5 3 1 1 2 4 3 1 2 0 357 0 4 4 3 360 351 342 342 344 348 351 347 340 340 343 339 332 333 334 333 334 331 325 323 323 322 317
192 193 194 194 194 193 193 193 195 198 199 197 195 190 186 185 186 186 187 188 186 179 171 166 151 126 95 61 55 59 60 54 41 35 30 26 27 28 26 26 24 23 23 21 19 16 12 9 6 4 3 4 6 7 7 7 6 3 4 5 6 6 2 353 346 345 348 352 354 351 346 345 348 345 338 336 335 334 335 333 330 329 329 327 321
194 193 193 193 194 193 193 196 198 200 202 201 198 194 190 190 190 190 192 193 193 190 185 183 180 165 139 86 59 61 59 51 38 31 24 18 20 21 22 22 21 20 18 18 18 17 13 10 8 6 6 6 7 9 10 11 11 10 8 6 7 9 6 358 349 346 350 355 357 354 350 349 352 352 347 341 338 337 338 336 334 332 330 329 325
193 194 193 194 195 194 193 194 197 199 201 202 202 199 194 193 193 192 194 195 195 195 193 191 192 190 187 199 86 59 47 37 29 24 18 13 13 14 16 18 17 15 12 10 11 10 8 6 4 4 6 7 8 10 10 11 12 13 11 9 9 10 9 4 358 352 351 355 358 358 355 352 355 357 355 349 341 338 341 341 338 337 335 333 329